Regional Weather Roundup
Issued by NWS

Home | Current Version | Previous Version | Graphics & Text | Print | Product List | Glossary On
Versions: 1 2 3 4 5 6 7 8 9 10 11 12 13 14 15 16 17 18 19 20 21 22 23 24 25 26 27 28 29 30 31 32 33 34 35 36
000
ASUS43 KDMX 222307
RWRIA

WEATHER ROUNDUP FOR IOWA
NATIONAL WEATHER SERVICE DES MOINES IA
600 PM CDT WED OCT 22 2014

NOTE: "FAIR" INDICATES FEW OR NO CLOUDS BELOW 12,000 FEET WITH NO
SIGNIFICANT WEATHER AND/OR OBSTRUCTIONS TO VISIBILITY.

* - THESE STATIONS ARE NOT NWS STATIONS...THUS NOT UNDER NWS
QUALITY CONTROL.  THEY ALSO DO NOT REPORT WEATHER SUCH
AS PRECIPITATION OR FOG.

IAZ001>003-012>014-020>022-031>034-043>046-230000-
   NORTHWEST IOWA

CITY           SKY/WX    TMP DP  RH WIND       PRES   REMARKS
CARROLL *      CLEAR     64  48  55 SE15G21   30.04S
CHEROKEE *     MOCLDY    68  52  56 S13G18    29.97S
DENISON *      CLEAR     66  52  59 SE16G22   29.98F
LE MARS *      LGT RAIN  63  59  88 W9        30.01R
ORANGE CITY *  RAIN      63  59  88 W14       30.01R
SHELDON *      CLOUDY    70  52  52 W20G29    29.98R
SIOUX CITY     HVY RAIN  63  60  90 NW10      30.01R FOG
SPENCER        MOCLDY    65  48  54 SE16      29.98S
STORM LAKE *   CLEAR     66  50  55 SE20G25   30.00F
$$

IAZ055>058-069>071-079>083-090>094-230000-
   SOUTHWEST IOWA

CITY           SKY/WX    TMP DP  RH WIND       PRES   REMARKS
ATLANTIC *     CLEAR     66  50  55 SE13      30.04S
AUDUBON *      CLEAR     64  46  52 SE8       30.06S
CLARINDA *     CLEAR     68  52  56 SE7G14    30.07S
COUNCIL BLFS * PTCLDY    70  55  60 SE15G21   29.99S
CRESTON *      PTCLDY    63  48  59 SE13G21   30.09S
HARLAN  *      CLEAR     68  54  60 SE14      30.06S
LAMONI         PTCLDY    63  48  58 SE13      30.11S
RED OAK *      CLEAR     70  54  56 SE13      30.04S
SHENANDOAH *   CLEAR     72  55  56 SE13G20   30.03S
$$

IAZ047>049-059>061-072>074-084-230000-
   CENTRAL IOWA

CITY           SKY/WX    TMP DP  RH WIND       PRES   REMARKS
AMES           MOCLDY    60  45  57 SE10      30.10S
ANKENY *       MOCLDY    63  46  55 SE8       30.11R
CHARITON *     CLEAR     61  48  63 SE9       30.12S
DES MOINES     MOCLDY    64  47  53 S12       30.11R
GRINNELL*      PTCLDY    59  41  51 SE10      30.14F
KNOXVILLE *    CLOUDY    61  45  55 SE14      30.11S
MARSHALLTOWN   CLOUDY    60  42  51 SE13      30.12F
PELLA *        MOCLDY    61  45  55 SE10      30.14F
PERRY *          N/A     63  48  59 SE12      30.08R
$$

IAZ004>006-015-016-023>025-035-036-230000-
   NORTH CENTRAL IOWA

CITY           SKY/WX    TMP DP  RH WIND       PRES   REMARKS
ALGONA *       PTCLDY    61  46  59 SE14G21   30.05S
CLARION *      PTCLDY    61  45  55 SE14G21   30.08S
ESTHERVILLE    MOCLDY    61  46  57 SE25      30.00S
FORT DODGE *   MOCLDY    63  46  55 S12       30.07S
MASON CITY     MOCLDY    58  42  55 SE13      30.11S
FOREST CITY *  CLOUDY    59  45  58 SE14      30.08S
IOWA FALLS *   CLOUDY    59  43  55 SE12      30.12S
$$

IAZ007>011-017>019-026>030-037>042-050>054-066-230000-
   NORTHEAST IOWA

CITY           SKY/WX    TMP DP  RH WIND       PRES   REMARKS
CEDAR RAPIDS   CLEAR     56  40  55 SE8       30.17F
CHARLES CITY * CLOUDY    57  39  51 SE13G22   30.13F
CLINTON *      CLEAR     55  36  47 SE7       30.24S
DECORAH *      CLEAR     55  37  50 SE9G15    30.15F
DUBUQUE        CLEAR     52  38  58 S7        30.21S
MONTICELLO *   CLEAR     55  39  54 SE8       30.19F
OELWEIN *      PTCLDY    55  39  54 SE12      30.16F
WATERLOO       PTCLDY    57  41  55 SE12      30.14F
$$

IAZ064-065-067-068-078-230000-
   EAST CENTRAL IOWA

CITY           SKY/WX    TMP DP  RH WIND       PRES   REMARKS
DAVENPORT      CLEAR     56  35  45 SE9       30.21F
IOWA CITY      CLEAR     56  41  57 SE9       30.19F
MT. PLEASANT * CLEAR     57  37  47 SE6       30.19S
MUSCATINE *    CLEAR     59  37  44 SE6       30.20S
QUAD CITIES    CLEAR     55  37  50 SE8       30.20F
$$

IAZ062-063-075>077-085>089-095>099-230000-
   SOUTHEAST IOWA

CITY           SKY/WX    TMP DP  RH WIND       PRES   REMARKS
BURLINGTON     CLEAR     58  41  53 SE6       30.19S
FAIRFIELD *    CLEAR     55  41  58 SE7       30.18R
FORT MADISON * CLEAR     59  43  55 SE6       30.20S
KEOKUK *       CLEAR     59  41  51 SE6       30.18S
OSKALOOSA *      N/A     57  41  54 SE9       30.15F
CENTERVILLE *  CLEAR     59  45  58 SE7       30.16S
WASHINGTON *   CLEAR     57  39  51 SE8       30.18S
$$

ABBREVIATIONS USED IN REMARKS
   TC - TEMPERATURES IN CELSIUS
  WCI - WIND CHILL INDEX
   HX - HEAT INDEX
  VSB - VISIBILITY
$$




USA.gov is the U.S. government's official web portal to all federal, state and local government web resources and services.